Regional Weather Roundup
Issued by NWS

Home | Current Version | Previous Version | Graphics & Text | Print | Product List | Glossary On
Versions: 1 2 3 4 5 6 7 8 9 10 11 12 13 14 15 16 17 18 19 20 21 22 23 24 25 26 27 28 29 30 31 32 33 34 35 36 37 38 39 40 41 42 43 44 45 46 47 48 49 50
173
ASUS44 KLIX 240801
RWRLA
LOUISIANA WEATHER ROUNDUP
NATIONAL WEATHER SERVICE NEW ORLEANS LA
200 AM CST MON NOV 24 2014

NOTE: "FAIR" INDICATES FEW OR NO CLOUDS BELOW 12,000 FEET WITH NO
      SIGNIFICANT WEATHER AND/OR OBSTRUCTIONS TO VISIBILITY.
      SKY/WX - SKY CONDITION AND SIGNIFICANT WEATHER.
      TMP - AIR TEMPERATURE.    DP   - DEWPOINT TEMPERATURE.
      RH  - RELATIVE HUMIDITY.  PRES - PRESSURE.
      HX  - HEAT INDEX.         WCI  - WIND CHILL INDEX.

*  THESE STATIONS ARE NOT NWS OR FAA STATIONS AND ARE NOT UNDER
   NWS QUALITY CONTROL.

LAZ040-048-061>063-065-066-069-240900-
SOUTHEAST LOUISIANA

CITY           SKY/WX    TMP DP  RH WIND       PRES   REMARKS
N.O. AUDUBON   NOT AVBL
N.O. INTL ARPT CLOUDY    67  65  93 S10       29.75S FOG
N.O. LAKEFRONT PTCLDY    68  66  93 SW15      29.75S FOG
N.O. DOWNTOWN* CLOUDY    68  63  83 S8        29.76S
SLIDELL        CLOUDY    67  65  93 SW6       29.74S FOG
BATON ROUGE    PTCLDY    66  63  90 SW9       29.72S
BOOTHVILLE     CLOUDY    67  67 100 S6        29.78R FOG
BELLE CHASSE   CLOUDY    68  66  93 SW9       29.75S
BOGALUSA*        N/A     71  65  82 SW12      29.75S
NEW ROADS*     FAIR      65  64  97 SW5       29.72R FOG
GONZALES*      NOT AVBL
HAMMOND*       CLOUDY    68  64  88 SW7       29.75S
HOUMA*         MOCLDY    68  68  99 S6        29.75S FOG
PORT FOURCHON* SUNNY     70  68  94 SW8       29.80S FOG

$$

LAZ041-044-053-054-240900-
SOUTHWEST LOUISIANA

CITY           SKY/WX    TMP DP  RH WIND       PRES   REMARKS
LAKE CHARLES   CLEAR     64  61  90 W7        29.74R
LAFAYETTE      MOCLDY    67  65  93 SW9       29.72S
PATTERSON      MOCLDY    66  66 100 SW8       29.76S
SALT POINT       N/A     69  64  84 SW6       29.73S
NEW IBERIA     FOG       65  64  97 S5        29.73S VSB 1/2
CHENAULT AIRPK CLEAR     65  61  85 W12       29.74R

$$

LAZ027-028-240900-
CENTRAL LOUISIANA

CITY           SKY/WX    TMP DP  RH WIND       PRES   REMARKS
FORT POLK      CLEAR     57  55  94 W6        29.75R
ALEXANDRIA INT CLEAR     59  56  89 VRB6      29.71R
ALEXANDRIA     CLEAR     60  55  83 W8        29.71R

$$

LAZ001-002-240900-
NORTHWEST LOUISIANA

CITY           SKY/WX    TMP DP  RH WIND       PRES   REMARKS
SHREVEPORT     CLEAR     52  43  71 W14       29.76R
BARKSDALE AFB  CLEAR     53  42  66 W17G24    29.75R
DTN SHREVEPORT PTCLDY    52  41  66 W15G23    29.76R

$$

LAZ014-016-240900-
NORTHEAST LOUISIANA

CITY           SKY/WX    TMP DP  RH WIND       PRES   REMARKS
MONROE         CLEAR     59  52  77 W15       29.68R
TALLULAH       CLEAR     62  57  83 SW6       29.67R

$$




USA.gov is the U.S. government's official web portal to all federal, state and local government web resources and services.